星链-37102(STARLINK-37102)

导读

STARLINK-37102(NORAD编号68183)是SpaceX星链星座中的一员,属于低轨互联网通信卫星。星链星座通过大规模部署低轨卫星,为全球提供高速互联网服务,尤其覆盖偏远地区和海上移动场景。该卫星运行在约550公里高度的近地轨道,采用星间激光互联技术,可实现动态路由传输。作为Starlink第二代组网卫星,它参与构建全球覆盖的卫星互联网网状架构,支撑星链系统高速低延迟的通信服务,助力SpaceX实现全球无缝网络覆盖的战略目标。

Basic Information
目录编号:
68183
目录名称:
STARLINK-37102
国际标识:
2026-050S
轨道中心:
EARTH
卫星名称:
星链-37102
卫星全名:
星链-37102(STARLINK-37102)
卫星状态:
在轨 (已飞行175 天)
发射日期:
2026-03-14 UTC
国别 :
美国 (US)
星等 :
--
Orbit Information
数据来源 国际轨道数据
星历时间: 2026-09-05T08:40:17+0800
12小时前
查看轨道信息
半长轴: 6840.791km
偏心率: 0.0001296
轨道倾角: 53.156°
近地点辐角 89.836°
升交点赤经 149.986°
平近点角 270.279°
近地点: 461.767km
远地点: 463.541km
周期: 93.847分钟
每日圈数: 15.344166
Detailed Information
固有亮度:
5
最大亮度:
2.5
卫星平台:
Starlink V1.0
覆盖范围:
全球
运营商:
太空探索技术公司
运营商所在国:
美国
制造商(研发单位):
太空探索技术公司
制造商所在国:
美国
使用方式:
暂无
Satellite Introduction
Starlink 计划是 SpaceX 推出的全球卫星互联网项目,通过发射低轨道卫星,为全球尤其是偏远地区提供高速、低延迟的互联网服务。自 2019 年起,Starlink 已部署数千颗卫星,旨在缩小全球数字鸿沟,推动互联网普及。该项目还为军事、航空等行业提供通信支持,带来广泛经济效益。
2D Orbit Map
3D Orbit Map
Orbit Altitude Analysis Chart
Orbit Inclination Analysis Chart
Orbit Comprehensive Analysis Chart
View Comprehensive Chart
Conjunction Data List
Event ID Objects TCA Miss Dist (km) Collision Risk Probability Collision Risk Index (CRI) Action
CDM_260908-000405-314206-818321
2026-09-08T
00:04:34+0000
0.143 km
中距离
8.557612E-4 高风险 0.94
CDM_260907-223005-314206-818321
2026-09-07T
22:30:47+0000
0.276 km
中距离
4.237715E-4 高风险 0.88
CDM_260906-072805-816206-818321
2026-09-06T
07:28:59+0000
0.343 km
远距离
2.369456E-4 高风险 0.82
CDM_260907-175705-263106-818321
2026-09-07T
17:57:47+0000
0.342 km
远距离
1.748989E-4 高风险 0.8
CDM_260907-205705-314206-818321
2026-09-07T
20:57:00+0000
0.502 km
远距离
1.332588E-4 高风险 0.77
CDM_260906-002806-618206-818321
2026-09-06T
00:28:55+0000
0.428 km
远距离
9.957467E-5 中风险 0.75
CDM_260907-135706-638806-818321
2026-09-07T
13:57:27+0000
0.548 km
远距离
8.37041E-5 中风险 0.73
CDM_260907-035806-818306-924421
2026-09-07T
03:58:17+0000
0.685 km
远距离
5.805076E-5 中风险 0.7
CDM_260907-082906-638806-818321
2026-09-07T
08:29:12+0000
0.660 km
远距离
4.918027E-5 中风险 0.69
CDM_260907-192305-314206-818321
2026-09-07T
19:23:14+0000
0.787 km
远距离
3.683544E-5 中风险 0.66